FW2486 Weather Reports


Display with metric or nautical units.
time (UTC)temp
F
wind
direction
speed
MPH
gust
MPH
rain 1hr
in
rain 24hr
in
rain mn
in
humidity
%
barometer
mb
20260902101536 58 128 3.0 6.0 0.00 0.00 0.00 72 1013.6
20260902100037 58 156 2.0 7.0 0.00 0.00 0.00 72 1013.7
20260902094535 58 162 3.0 9.0 0.00 0.00 0.00 73 1013.9
20260902093034 57 210 2.0 8.0 0.00 0.00 0.00 75 1014.0
20260902091537 56 154 1.0 4.0 0.00 0.00 0.00 75 1014.0
20260902084536 58 152 3.0 9.0 0.00 0.00 0.00 71 1013.9
20260902081536 58 151 3.0 7.0 0.00 0.00 0.00 71 1014.1
20260902074606 57 201 4.0 11.0 0.00 0.00 0.00 73 1014.2
20260902073043 58 154 1.0 4.0 0.00 0.00 0.00 71 1014.3
20260902073036 59 175 1.0 6.0 0.00 0.00 0.00 69 1014.4
20260902070034 60 185 3.0 7.0 0.00 0.00 0.00 69 1014.7
20260902064537 60 164 3.0 7.0 0.00 0.00 0.00 69 1014.9
20260902063035 60 152 3.0 6.0 0.00 0.00 0.00 68 1014.9
20260902061537 61 164 3.0 8.0 0.00 0.00 0.00 68 1015.0
20260902060031 61 151 3.0 7.0 0.00 0.00 0.00 65 1015.0
20260902054535 62 191 3.0 13.0 0.00 0.00 0.00 65 1014.9
20260902053036 61 208 4.0 9.0 0.00 0.00 0.00 65 1014.8
20260902051535 61 189 2.0 8.0 0.00 0.00 0.00 66 1014.7
20260902050034 61 190 3.0 8.0 0.00 0.00 0.00 65 1014.6
20260902044605 61 155 2.0 4.0 0.00 0.00 0.00 64 1014.5
20260902043030 62 153 3.0 7.0 0.00 0.00 0.00 62 1014.4
20260902040036 62 230 4.0 10.0 0.00 0.00 0.00 62 1014.1
20260902034535 62 260 4.0 13.0 0.00 0.00 0.00 62 1013.8
20260902033030 62 337 4.0 14.0 0.00 0.00 0.00 63 1013.7
20260902031536 62 312 3.0 11.0 0.00 0.00 0.00 63 1013.6
20260902030145 62 40 2.0 6.0 0.00 0.00 0.00 63 1014.0
20260902023105 63 231 3.0 10.0 0.00 0.00 0.00 59 1013.8
20260902020035 64 242 4.0 10.0 0.00 0.00 0.00 59 1013.7
20260902014607 66 210 1.0 7.0 0.00 0.00 0.00 56 1013.5
20260902013037 66 245 5.0 12.0 0.00 0.00 0.00 54 1013.4
20260902011530 67 236 5.0 18.0 0.00 0.00 0.00 53 1013.3
20260902010034 68 203 3.0 15.0 0.00 0.00 0.00 52 1013.4
20260902004533 69 266 3.0 11.0 0.00 0.00 0.00 52 1013.1
20260902003029 68 279 4.0 11.0 0.00 0.00 0.00 52 1012.9
20260902001605 70 282 5.0 13.0 0.00 0.00 0.00 51 1012.8
20260902000034 70 168 4.0 13.0 0.00 0.00 0.00 52 1012.7
20260901234530 69 335 3.0 8.0 0.00 0.00 0.00 52 1012.7
20260901233034 71 313 2.0 9.0 0.00 0.00 0.00 49 1012.7
20260901231641 72 288 3.0 11.0 0.00 0.00 0.00 48 1012.6
20260901230031 73 282 6.0 16.0 0.00 0.00 0.00 48 1012.5
20260901224533 71 288 3.0 11.0 0.00 0.00 0.00 50 1012.5
20260901223034 70 272 3.0 13.0 0.00 0.00 0.00 51 1012.4
20260901220036 73 246 3.0 14.0 0.00 0.00 0.00 47 1012.3
20260901214537 74 228 4.0 10.0 0.00 0.00 0.00 47 1012.2
20260901213036 73 215 6.0 17.0 0.00 0.00 0.00 49 1012.1
20260901210032 74 209 6.0 18.0 0.00 0.00 0.00 49 1012.1
20260901204533 74 347 3.0 12.0 0.00 0.00 0.00 48 1012.3
20260901201531 73 271 4.0 12.0 0.00 0.00 0.00 49 1012.5
20260901200152 72 228 6.0 17.0 0.00 0.00 0.00 50 1012.7
20260901193035 70 190 6.0 14.0 0.00 0.00 0.00 53 1013.1
20260901191610 69 189 6.0 14.0 0.00 0.00 0.00 56 1013.3
20260901190110 68 176 6.0 16.0 0.00 0.00 0.00 57 1013.4
20260901184534 67 177 7.0 19.0 0.00 0.00 0.00 59 1013.5
20260901183035 66 185 8.0 17.0 0.00 0.00 0.00 60 1013.6
20260901181642 65 191 8.0 18.0 0.00 0.00 0.00 62 1013.7
20260901180035 64 194 8.0 15.0 0.00 0.00 0.00 64 1013.9
20260901174537 63 196 6.0 16.0 0.00 0.00 0.00 66 1014.1
20260901173107 63 188 6.0 13.0 0.00 0.00 0.00 67 1014.1
20260901171534 63 186 5.0 13.0 0.00 0.00 0.00 68 1014.1
20260901170036 62 179 6.0 14.0 0.00 0.00 0.00 69 1014.1
20260901164536 61 177 6.0 13.0 0.00 0.00 0.00 70 1014.1
20260901163037 61 173 6.0 14.0 0.00 0.00 0.00 72 1014.0
20260901161647 60 156 5.0 12.0 0.00 0.00 0.00 74 1014.0
20260901160036 59 149 5.0 11.0 0.00 0.00 0.00 75 1013.9
20260901153037 59 154 5.0 10.0 0.00 0.00 0.00 75 1014.0
20260901150037 58 155 6.0 13.0 0.00 0.00 0.00 75 1013.9
20260901144535 58 159 5.0 13.0 0.00 0.00 0.00 75 1013.8
20260901143030 58 158 4.0 12.0 0.00 0.00 0.00 75 1013.7
20260901141536 58 172 3.0 8.0 0.00 0.00 0.00 75 1013.6
20260901140106 58 173 4.0 9.0 0.00 0.00 0.00 75 1013.4
20260901133034 59 177 5.0 13.0 0.00 0.00 0.00 73 1013.1
20260901131531 60 179 5.0 15.0 0.00 0.00 0.00 73 1013.0
20260901130106 60 188 6.0 18.0 0.00 0.00 0.00 72 1012.9
20260901123035 61 190 5.0 17.0 0.00 0.00 0.00 72 1012.7
20260901121533 61 194 5.0 13.0 0.00 0.00 0.00 71 1012.7
20260901120035 61 189 5.0 17.0 0.00 0.00 0.00 71 1012.7
20260901114536 61 179 6.0 14.0 0.00 0.00 0.00 71 1012.7
20260901113032 62 177 6.0 13.0 0.00 0.00 0.00 71 1012.6
20260901111533 62 170 5.0 15.0 0.00 0.00 0.00 71 1012.6
20260901110036 60 178 5.0 14.0 0.00 0.00 0.00 75 1012.6
20260901104533 58 144 5.0 12.0 0.00 0.00 0.00 75 1012.6
20260901103031 59 140 5.0 9.0 0.00 0.00 0.00 75 1012.6